| time (UTC) | temp F | wind direction | speed MPH | gust MPH | rain 1hr in | rain 24hr in | rain mn in | humidity % | barometer mb |
| 20260901181928 | 64 | 71 | 1.0 | 7.0 | 0.00 | 0.31 | 0.31 | 94 | 1015.9 |
| 20260901181202 | 64 | 65 | 2.0 | 7.0 | 0.00 | 0.31 | 0.31 | 94 | 1015.8 |
| 20260901180656 | 64 | 78 | 2.0 | 9.0 | 0.00 | 0.31 | 0.31 | 94 | 1015.8 |
| 20260901180145 | 64 | 103 | 2.0 | 9.0 | 0.00 | 0.31 | 0.31 | 94 | 1015.7 |
| 20260901175903 | 65 | 114 | 2.0 | 7.0 | 0.00 | 0.31 | 0.31 | 94 | 1015.7 |
| 20260901175134 | 65 | 170 | 2.0 | 7.0 | 0.00 | 0.31 | 0.31 | 94 | 1015.7 |
| 20260901174849 | 65 | 81 | 2.0 | 8.0 | 0.00 | 0.31 | 0.31 | 93 | 1015.7 |
| 20260901174117 | 65 | 173 | 2.0 | 8.0 | 0.00 | 0.31 | 0.31 | 93 | 1015.7 |
| 20260901173842 | 65 | 127 | 1.0 | 6.0 | 0.00 | 0.31 | 0.31 | 94 | 1015.7 |
| 20260901173100 | 65 | 147 | 1.0 | 10.0 | 0.00 | 0.31 | 0.31 | 95 | 1015.7 |
| 20260901172554 | 65 | 147 | 2.0 | 10.0 | 0.00 | 0.31 | 0.31 | 94 | 1015.7 |
| 20260901172048 | 65 | 99 | 2.0 | 7.0 | 0.00 | 0.31 | 0.31 | 94 | 1015.7 |
| 20260901171801 | 65 | 119 | 2.0 | 7.0 | 0.00 | 0.31 | 0.31 | 96 | 1015.6 |
| 20260901171032 | 64 | 159 | 2.0 | 7.0 | 0.00 | 0.31 | 0.31 | 96 | 1015.6 |
| 20260901170526 | 64 | 112 | 2.0 | 8.0 | 0.00 | 0.31 | 0.31 | 96 | 1015.7 |
| 20260901170236 | 64 | 38 | 1.0 | 8.0 | 0.00 | 0.31 | 0.31 | 96 | 1015.6 |
| 20260901165510 | 63 | 135 | 2.0 | 3.0 | 0.00 | 0.31 | 0.31 | 96 | 1015.7 |
| 20260901165004 | 63 | 132 | 2.0 | 8.0 | 0.00 | 0.31 | 0.31 | 96 | 1015.8 |
| 20260901164454 | 63 | 134 | 2.0 | 8.0 | 0.00 | 0.31 | 0.31 | 96 | 1015.7 |
| 20260901163443 | 63 | 63 | 2.0 | 6.0 | 0.00 | 0.31 | 0.31 | 97 | 1015.7 |
| 20260901161920 | 62 | 56 | 1.0 | 6.0 | 0.00 | 0.31 | 0.31 | 97 | 1015.9 |
| 20260901161410 | 62 | 130 | 1.0 | 6.0 | 0.00 | 0.31 | 0.31 | 97 | 1015.9 |
| 20260901160904 | 62 | 137 | 1.0 | 6.0 | 0.00 | 0.31 | 0.31 | 97 | 1015.9 |
| 20260901160620 | 62 | 138 | 1.0 | 5.0 | 0.00 | 0.31 | 0.31 | 97 | 1016.0 |
| 20260901160107 | 63 | 86 | 1.0 | 5.0 | 0.00 | 0.31 | 0.31 | 98 | 1016.0 |
| 20260901155342 | 62 | 108 | 1.0 | 4.0 | 0.00 | 0.31 | 0.31 | 98 | 1016.0 |
| 20260901154836 | 62 | 96 | 1.0 | 3.0 | 0.00 | 0.31 | 0.31 | 98 | 1016.1 |
| 20260901153819 | 62 | 94 | 1.0 | 6.0 | 0.00 | 0.31 | 0.31 | 98 | 1016.0 |
| 20260901153313 | 62 | 126 | 1.0 | 5.0 | 0.00 | 0.31 | 0.31 | 98 | 1016.0 |
| 20260901152803 | 62 | 102 | 1.0 | 3.0 | 0.00 | 0.31 | 0.31 | 98 | 1016.0 |
| 20260901152256 | 62 | 103 | 1.0 | 4.0 | 0.00 | 0.31 | 0.31 | 98 | 1015.9 |
| 20260901151751 | 62 | 126 | 2.0 | 4.0 | 0.01 | 0.31 | 0.31 | 98 | 1015.9 |
| 20260901151241 | 62 | 104 | 2.0 | 4.0 | 0.01 | 0.31 | 0.31 | 98 | 1015.8 |
| 20260901150735 | 62 | 44 | 2.0 | 5.0 | 0.02 | 0.31 | 0.31 | 98 | 1015.8 |
| 20260901150228 | 61 | 24 | 2.0 | 6.0 | 0.02 | 0.31 | 0.31 | 98 | 1015.7 |
| 20260901145719 | 61 | 344 | 3.0 | 6.0 | 0.03 | 0.31 | 0.31 | 98 | 1015.7 |
| 20260901145439 | 61 | 32 | 3.0 | 9.0 | 0.03 | 0.31 | 0.31 | 98 | 1015.6 |
| 20260901144707 | 61 | 115 | 3.0 | 9.0 | 0.03 | 0.31 | 0.31 | 98 | 1015.4 |
| 20260901144201 | 60 | 65 | 2.0 | 5.0 | 0.04 | 0.31 | 0.31 | 98 | 1015.2 |
| 20260901143700 | 61 | 71 | 2.0 | 6.0 | 0.05 | 0.31 | 0.31 | 98 | 1015.0 |
| 20260901143159 | 61 | 82 | 3.0 | 7.0 | 0.05 | 0.31 | 0.31 | 98 | 1015.0 |
| 20260901142659 | 61 | 72 | 2.0 | 7.0 | 0.05 | 0.31 | 0.31 | 98 | 1015.1 |
| 20260901142159 | 61 | 109 | 1.0 | 5.0 | 0.06 | 0.31 | 0.31 | 98 | 1015.1 |
| 20260901141656 | 61 | 134 | 1.0 | 6.0 | 0.05 | 0.30 | 0.30 | 98 | 1015.0 |
| 20260901141155 | 60 | 92 | 1.0 | 6.0 | 0.05 | 0.30 | 0.30 | 98 | 1015.1 |
| 20260901140655 | 60 | 115 | 1.0 | 4.0 | 0.04 | 0.29 | 0.29 | 98 | 1015.1 |
| 20260901140425 | 60 | 112 | 1.0 | 5.0 | 0.05 | 0.29 | 0.29 | 98 | 1015.2 |
| 20260901135653 | 60 | 156 | 1.0 | 5.0 | 0.04 | 0.28 | 0.28 | 98 | 1015.1 |
| 20260901135151 | 60 | 157 | 1.0 | 4.0 | 0.04 | 0.28 | 0.28 | 98 | 1015.1 |
| 20260901134651 | 60 | 162 | 1.0 | 4.0 | 0.04 | 0.28 | 0.28 | 98 | 1015.1 |
| 20260901134151 | 60 | 163 | 1.0 | 5.0 | 0.03 | 0.27 | 0.27 | 98 | 1015.1 |
| 20260901133650 | 60 | 163 | 1.0 | 5.0 | 0.02 | 0.26 | 0.26 | 98 | 1015.1 |
| 20260901133148 | 60 | 128 | 1.0 | 4.0 | 0.03 | 0.26 | 0.26 | 98 | 1015.2 |
| 20260901132647 | 60 | 99 | 1.0 | 5.0 | 0.03 | 0.26 | 0.26 | 98 | 1015.3 |
| 20260901132146 | 60 | 148 | 1.0 | 5.0 | 0.02 | 0.25 | 0.26 | 98 | 1015.3 |
| 20260901131130 | 60 | 146 | 1.0 | 3.0 | 0.04 | 0.25 | 0.25 | 98 | 1015.4 |
| 20260901130628 | 60 | 145 | 1.0 | 4.0 | 0.04 | 0.24 | 0.24 | 98 | 1015.5 |
| 20260901130127 | 60 | 355 | 2.0 | 4.0 | 0.05 | 0.24 | 0.24 | 98 | 1015.8 |
| 20260901125846 | 60 | 88 | 1.0 | 4.0 | 0.06 | 0.24 | 0.24 | 98 | 1015.7 |
| 20260901125127 | 60 | 126 | 1.0 | 3.0 | 0.07 | 0.24 | 0.24 | 98 | 1015.8 |
| 20260901124625 | 60 | 126 | 1.0 | 3.0 | 0.08 | 0.24 | 0.24 | 98 | 1015.7 |
| 20260901123623 | 60 | 355 | 0.0 | 2.0 | 0.09 | 0.24 | 0.24 | 98 | 1015.9 |
| 20260901123123 | 60 | 342 | 0.0 | 1.0 | 0.08 | 0.23 | 0.23 | 98 | 1016.0 |
| 20260901122623 | 60 | 342 | 0.0 | 1.0 | 0.08 | 0.23 | 0.23 | 98 | 1016.1 |
| 20260901122121 | 60 | 342 | 0.0 | 1.0 | 0.10 | 0.23 | 0.23 | 98 | 1016.2 |
| 20260901121619 | 60 | 342 | 1.0 | 2.0 | 0.10 | 0.22 | 0.22 | 98 | 1016.4 |
| 20260901121122 | 60 | 342 | 1.0 | 2.0 | 0.09 | 0.21 | 0.21 | 98 | 1016.4 |
| 20260901115615 | 59 | 342 | 0.0 | 2.0 | 0.08 | 0.18 | 0.18 | 98 | 1016.2 |
| 20260901115115 | 59 | 342 | 0.0 | 2.0 | 0.08 | 0.17 | 0.17 | 98 | 1016.4 |
| 20260901114613 | 59 | 342 | 0.0 | 2.0 | 0.08 | 0.16 | 0.16 | 98 | 1016.4 |
| 20260901114112 | 59 | 342 | 0.0 | 1.0 | 0.08 | 0.16 | 0.16 | 98 | 1016.2 |
| 20260901113611 | 59 | 342 | 0.0 | 2.0 | 0.07 | 0.15 | 0.15 | 98 | 1016.2 |
| 20260901113109 | 59 | 342 | 1.0 | 2.0 | 0.08 | 0.15 | 0.15 | 98 | 1016.2 |
| 20260901112609 | 59 | 342 | 1.0 | 2.0 | 0.08 | 0.15 | 0.15 | 98 | 1016.2 |
| 20260901112107 | 59 | 342 | 1.0 | 2.0 | 0.07 | 0.13 | 0.14 | 98 | 1016.1 |
| 20260901111326 | 59 | 342 | 1.0 | 4.0 | 0.06 | 0.12 | 0.12 | 98 | 1016.0 |
| 20260901110604 | 59 | 343 | 1.0 | 3.0 | 0.05 | 0.11 | 0.11 | 98 | 1016.2 |
| 20260901110104 | 59 | 340 | 1.0 | 3.0 | 0.05 | 0.11 | 0.11 | 98 | 1016.2 |
| 20260901105605 | 59 | 18 | 1.0 | 2.0 | 0.04 | 0.10 | 0.10 | 98 | 1016.1 |
| 20260901105105 | 59 | 37 | 1.0 | 2.0 | 0.03 | 0.09 | 0.09 | 98 | 1016.2 |
| 20260901104604 | 59 | 37 | 1.0 | 2.0 | 0.03 | 0.08 | 0.08 | 98 | 1016.2 |
| 20260901104105 | 59 | 37 | 1.0 | 2.0 | 0.03 | 0.08 | 0.08 | 98 | 1016.1 |
| 20260901103105 | 59 | 37 | 0.0 | 2.0 | 0.02 | 0.07 | 0.07 | 98 | 1015.8 |
| 20260901102605 | 59 | 37 | 1.0 | 2.0 | 0.02 | 0.07 | 0.07 | 98 | 1015.8 |
| 20260901102104 | 59 | 37 | 1.0 | 2.0 | 0.02 | 0.06 | 0.06 | 98 | 1015.8 |
| 20260901101605 | 59 | 37 | 1.0 | 2.0 | 0.03 | 0.06 | 0.06 | 98 | 1015.7 |
| 20260901101104 | 59 | 39 | 1.0 | 2.0 | 0.03 | 0.06 | 0.06 | 98 | 1015.6 |
| 20260901100605 | 59 | 39 | 0.0 | 2.0 | 0.04 | 0.06 | 0.06 | 97 | 1015.5 |
| 20260901100104 | 59 | 39 | 0.0 | 1.0 | 0.05 | 0.06 | 0.06 | 97 | 1015.5 |
| 20260901095605 | 59 | 39 | 0.0 | 1.0 | 0.05 | 0.06 | 0.06 | 97 | 1015.4 |
| 20260901095322 | 59 | 39 | 0.0 | 1.0 | 0.06 | 0.06 | 0.06 | 98 | 1015.4 |
| 20260901094605 | 59 | 39 | 0.0 | 1.0 | 0.05 | 0.05 | 0.05 | 97 | 1015.3 |
| 20260901094104 | 59 | 39 | 0.0 | 1.0 | 0.05 | 0.05 | 0.05 | 97 | 1015.3 |
| 20260901093605 | 59 | 38 | 0.0 | 1.0 | 0.05 | 0.05 | 0.05 | 97 | 1015.4 |
| 20260901093104 | 59 | 38 | 0.0 | 1.0 | 0.05 | 0.05 | 0.05 | 97 | 1015.6 |
| 20260901092605 | 59 | 38 | 0.0 | 2.0 | 0.05 | 0.05 | 0.05 | 97 | 1015.7 |
| 20260901092104 | 59 | 38 | 0.0 | 2.0 | 0.04 | 0.04 | 0.04 | 97 | 1015.6 |
| 20260901091829 | 59 | 38 | 1.0 | 3.0 | 0.03 | 0.03 | 0.03 | 97 | 1015.6 |
| 20260901091105 | 59 | 38 | 1.0 | 3.0 | 0.03 | 0.03 | 0.03 | 97 | 1015.7 |
| 20260901090602 | 59 | 38 | 1.0 | 3.0 | 0.02 | 0.02 | 0.02 | 97 | 1015.8 |
| 20260901090103 | 60 | 38 | 0.0 | 3.0 | 0.01 | 0.01 | 0.01 | 97 | 1015.8 |
| 20260901085818 | 60 | 39 | 0.0 | 1.0 | 0.01 | 0.01 | 0.01 | 97 | 1015.8 |
| 20260901085048 | 60 | 39 | 0.0 | 1.0 | 0.00 | 0.00 | 0.00 | 97 | 1015.6 |
| 20260901084541 | 60 | 39 | 0.0 | 2.0 | 0.00 | 0.00 | 0.00 | 97 | 1015.6 |
| 20260901084035 | 60 | 39 | 0.0 | 2.0 | 0.00 | 0.00 | 0.00 | 97 | 1015.7 |
| 20260901083525 | 60 | 39 | 0.0 | 2.0 | 0.00 | 0.00 | 0.00 | 97 | 1015.7 |
| 20260901083022 | 60 | 39 | 0.0 | 2.0 | 0.00 | 0.00 | 0.00 | 97 | 1015.7 |
| 20260901082513 | 60 | 39 | 1.0 | 2.0 | 0.00 | 0.00 | 0.00 | 97 | 1015.6 |
| 20260901081458 | 60 | 39 | 0.0 | 1.0 | 0.00 | 0.00 | 0.00 | 97 | 1015.6 |
| 20260901081212 | 60 | 39 | 0.0 | 1.0 | 0.00 | 0.01 | 0.00 | 97 | 1015.7 |
| 20260901080437 | 60 | 39 | 0.0 | 0.0 | 0.00 | 0.01 | 0.00 | 97 | 1015.8 |
| 20260901075931 | 60 | 39 | 0.0 | 1.0 | 0.00 | 0.01 | 0.00 | 97 | 1015.9 |
| 20260901075425 | 60 | 39 | 0.0 | 1.0 | 0.00 | 0.01 | 0.00 | 97 | 1015.8 |
| 20260901074915 | 60 | 39 | 1.0 | 2.0 | 0.00 | 0.01 | 0.00 | 97 | 1015.7 |
| 20260901074409 | 60 | 39 | 1.0 | 4.0 | 0.00 | 0.01 | 0.00 | 97 | 1015.9 |
| 20260901073903 | 60 | 39 | 1.0 | 4.0 | 0.00 | 0.01 | 0.00 | 97 | 1016.0 |
| 20260901073352 | 60 | 84 | 0.0 | 0.0 | 0.00 | 0.01 | 0.00 | 97 | 1015.8 |
| 20260901072847 | 60 | 84 | 0.0 | 0.0 | 0.00 | 0.01 | 0.00 | 97 | 1015.9 |
| 20260901072341 | 60 | 84 | 0.0 | 0.0 | 0.00 | 0.01 | 0.00 | 97 | 1016.0 |
| 20260901071831 | 60 | 84 | 0.0 | 2.0 | 0.00 | 0.01 | 0.00 | 97 | 1016.0 |
| 20260901071325 | 60 | 84 | 0.0 | 2.0 | 0.00 | 0.01 | 0.00 | 97 | 1016.0 |
| 20260901070819 | 60 | 84 | 0.0 | 2.0 | 0.00 | 0.01 | 0.00 | 97 | 1016.0 |
| 20260901070309 | 60 | 84 | 1.0 | 2.0 | 0.00 | 0.01 | 0.00 | 97 | 1016.1 |
| 20260901065803 | 60 | 84 | 1.0 | 2.0 | 0.00 | 0.01 | 0.00 | 97 | 1016.1 |
| 20260901065518 | 60 | 84 | 0.0 | 2.0 | 0.00 | 0.01 | 0.00 | 97 | 1016.2 |
| 20260901064748 | 60 | 84 | 0.0 | 1.0 | 0.00 | 0.01 | 0.00 | 97 | 1016.0 |
| 20260901064240 | 60 | 84 | 0.0 | 1.0 | 0.00 | 0.01 | 0.00 | 97 | 1015.9 |
| 20260901063735 | 60 | 84 | 0.0 | 1.0 | 0.00 | 0.01 | 0.00 | 97 | 1016.0 |
| 20260901063225 | 60 | 84 | 0.0 | 1.0 | 0.00 | 0.01 | 0.00 | 97 | 1015.9 |
| 20260901062719 | 60 | 84 | 0.0 | 2.0 | 0.00 | 0.01 | 0.00 | 97 | 1015.9 |
| 20260901062212 | 60 | 84 | 0.0 | 2.0 | 0.00 | 0.01 | 0.00 | 97 | 1016.0 |
| 20260901061918 | 60 | 84 | 0.0 | 1.0 | 0.00 | 0.01 | 0.00 | 97 | 1016.2 |
| 20260901061157 | 60 | 84 | 0.0 | 1.0 | 0.00 | 0.01 | 0.00 | 97 | 1016.4 |
| 20260901060651 | 60 | 84 | 0.0 | 1.0 | 0.00 | 0.01 | 0.00 | 97 | 1016.5 |
| 20260901060404 | 60 | 84 | 0.0 | 2.0 | 0.00 | 0.01 | 0.00 | 97 | 1016.5 |
| 20260901055635 | 60 | 84 | 0.0 | 2.0 | 0.00 | 0.01 | 0.00 | 97 | 1016.6 |
| 20260901055129 | 59 | 83 | 0.0 | 1.0 | 0.00 | 0.01 | 0.00 | 97 | 1016.6 |
| 20260901054838 | 59 | 83 | 0.0 | 1.0 | 0.00 | 0.01 | 0.00 | 97 | 1016.5 |
| 20260901054113 | 59 | 83 | 0.0 | 1.0 | 0.00 | 0.01 | 0.00 | 97 | 1016.5 |
| 20260901053607 | 59 | 83 | 0.0 | 2.0 | 0.00 | 0.01 | 0.00 | 96 | 1016.4 |
| 20260901053057 | 60 | 83 | 0.0 | 2.0 | 0.00 | 0.01 | 0.00 | 96 | 1016.5 |
| 20260901052551 | 60 | 78 | 0.0 | 2.0 | 0.00 | 0.01 | 0.00 | 97 | 1016.8 |
| 20260901052307 | 60 | 78 | 0.0 | 1.0 | 0.00 | 0.01 | 0.00 | 96 | 1016.7 |
| 20260901051757 | 60 | 78 | 0.0 | 0.0 | 0.00 | 0.01 | 0.00 | 96 | 1016.8 |
| 20260901051028 | 60 | 78 | 0.0 | 0.0 | 0.00 | 0.01 | 0.00 | 96 | 1016.8 |
| 20260901050523 | 60 | 78 | 0.0 | 1.0 | 0.00 | 0.01 | 0.00 | 96 | 1016.9 |
| 20260901050013 | 60 | 78 | 0.0 | 1.0 | 0.00 | 0.01 | 0.00 | 96 | 1017.0 |
| 20260901045507 | 60 | 78 | 0.0 | 2.0 | 0.00 | 0.01 | 0.00 | 96 | 1016.9 |
| 20260901045001 | 60 | 78 | 0.0 | 2.0 | 0.00 | 0.01 | 0.00 | 96 | 1016.9 |
| 20260901044451 | 60 | 78 | 0.0 | 2.0 | 0.00 | 0.01 | 0.00 | 96 | 1016.9 |
| 20260901043945 | 61 | 78 | 0.0 | 1.0 | 0.00 | 0.01 | 0.00 | 97 | 1016.9 |
| 20260901043713 | 61 | 78 | 0.0 | 2.0 | 0.00 | 0.01 | 0.00 | 97 | 1016.9 |
| 20260901043155 | 61 | 78 | 1.0 | 3.0 | 0.00 | 0.01 | 0.00 | 97 | 1016.9 |
| 20260901042421 | 61 | 78 | 2.0 | 4.0 | 0.00 | 0.01 | 0.00 | 97 | 1017.0 |
| 20260901042136 | 61 | 78 | 2.0 | 4.0 | 0.00 | 0.01 | 0.00 | 97 | 1017.1 |
| 20260901041626 | 60 | 37 | 2.0 | 4.0 | 0.00 | 0.01 | 0.00 | 97 | 1017.1 |
| 20260901040859 | 60 | 327 | 1.0 | 4.0 | 0.00 | 0.01 | 0.00 | 97 | 1017.0 |
| 20260901040353 | 60 | 325 | 1.0 | 3.0 | 0.00 | 0.01 | 0.00 | 97 | 1017.0 |
| 20260901040103 | 60 | 325 | 1.0 | 3.0 | 0.00 | 0.01 | 0.01 | 97 | 1017.1 |
| 20260901035337 | 60 | 325 | 1.0 | 3.0 | 0.00 | 0.01 | 0.01 | 97 | 1016.8 |
| 20260901034831 | 60 | 325 | 1.0 | 3.0 | 0.00 | 0.01 | 0.01 | 97 | 1016.9 |
| 20260901034321 | 60 | 325 | 1.0 | 3.0 | 0.00 | 0.01 | 0.01 | 97 | 1016.7 |
| 20260901033815 | 60 | 315 | 2.0 | 4.0 | 0.00 | 0.01 | 0.01 | 97 | 1016.7 |
| 20260901033309 | 60 | 315 | 2.0 | 4.0 | 0.00 | 0.01 | 0.01 | 97 | 1016.6 |
| 20260901033023 | 60 | 313 | 1.0 | 3.0 | 0.00 | 0.01 | 0.01 | 97 | 1016.6 |
| 20260901032258 | 60 | 312 | 0.0 | 2.0 | 0.00 | 0.01 | 0.01 | 97 | 1016.5 |
| 20260901031747 | 60 | 312 | 0.0 | 2.0 | 0.00 | 0.01 | 0.01 | 97 | 1016.6 |
| 20260901031459 | 60 | 312 | 1.0 | 2.0 | 0.00 | 0.01 | 0.01 | 97 | 1016.8 |
| 20260901030731 | 60 | 312 | 1.0 | 3.0 | 0.00 | 0.01 | 0.01 | 97 | 1016.7 |
| 20260901030448 | 60 | 312 | 1.0 | 3.0 | 0.00 | 0.01 | 0.01 | 97 | 1016.7 |
| 20260901025719 | 60 | 269 | 1.0 | 2.0 | 0.00 | 0.01 | 0.01 | 97 | 1016.8 |
| 20260901025213 | 60 | 270 | 0.0 | 2.0 | 0.00 | 0.01 | 0.01 | 97 | 1016.9 |
| 20260901024707 | 60 | 269 | 0.0 | 1.0 | 0.00 | 0.01 | 0.01 | 97 | 1017.0 |
| 20260901024157 | 61 | 269 | 0.0 | 1.0 | 0.00 | 0.01 | 0.01 | 97 | 1017.1 |
| 20260901023651 | 61 | 269 | 0.0 | 1.0 | 0.00 | 0.01 | 0.01 | 97 | 1017.1 |
| 20260901023412 | 61 | 269 | 0.0 | 0.0 | 0.00 | 0.01 | 0.01 | 97 | 1017.1 |
| 20260901022635 | 61 | 269 | 0.0 | 0.0 | 0.00 | 0.01 | 0.01 | 97 | 1017.1 |
| 20260901022129 | 61 | 269 | 0.0 | 1.0 | 0.00 | 0.02 | 0.01 | 97 | 1017.2 |
| 20260901021623 | 61 | 269 | 0.0 | 2.0 | 0.00 | 0.02 | 0.01 | 97 | 1017.2 |
| 20260901021113 | 61 | 269 | 1.0 | 2.0 | 0.00 | 0.02 | 0.01 | 97 | 1017.2 |
| 20260901020101 | 60 | 269 | 1.0 | 3.0 | 0.00 | 0.02 | 0.01 | 97 | 1017.2 |
| 20260901015810 | 60 | 236 | 1.0 | 2.0 | 0.00 | 0.02 | 0.01 | 96 | 1017.3 |
| 20260901015044 | 60 | 236 | 1.0 | 2.0 | 0.00 | 0.02 | 0.01 | 96 | 1017.2 |
| 20260901014538 | 60 | 236 | 1.0 | 3.0 | 0.00 | 0.02 | 0.01 | 96 | 1017.2 |
| 20260901014030 | 61 | 236 | 1.0 | 3.0 | 0.00 | 0.02 | 0.01 | 96 | 1017.2 |
| 20260901013523 | 60 | 215 | 1.0 | 2.0 | 0.00 | 0.02 | 0.01 | 96 | 1017.1 |
| 20260901013016 | 60 | 215 | 0.0 | 1.0 | 0.00 | 0.02 | 0.01 | 96 | 1017.0 |
| 20260901012507 | 60 | 215 | 1.0 | 2.0 | 0.00 | 0.02 | 0.01 | 96 | 1017.0 |
| 20260901012001 | 61 | 215 | 0.0 | 2.0 | 0.00 | 0.02 | 0.01 | 96 | 1016.9 |
| 20260901011455 | 61 | 215 | 0.0 | 2.0 | 0.00 | 0.02 | 0.01 | 96 | 1017.0 |
| 20260901010945 | 61 | 215 | 0.0 | 2.0 | 0.00 | 0.02 | 0.01 | 95 | 1017.0 |
| 20260901010439 | 62 | 215 | 0.0 | 2.0 | 0.00 | 0.02 | 0.01 | 95 | 1017.0 |
| 20260901005933 | 62 | 215 | 0.0 | 0.0 | 0.00 | 0.02 | 0.01 | 95 | 1016.9 |
| 20260901005427 | 62 | 215 | 0.0 | 0.0 | 0.00 | 0.02 | 0.01 | 95 | 1016.9 |
| 20260901004926 | 63 | 215 | 0.0 | 0.0 | 0.00 | 0.02 | 0.01 | 94 | 1016.9 |
| 20260901004425 | 63 | 215 | 0.0 | 0.0 | 0.00 | 0.03 | 0.01 | 94 | 1017.0 |
| 20260901003925 | 63 | 215 | 0.0 | 1.0 | 0.00 | 0.03 | 0.01 | 94 | 1017.1 |
| 20260901003426 | 63 | 215 | 0.0 | 1.0 | 0.00 | 0.03 | 0.01 | 94 | 1017.0 |
| 20260901002924 | 64 | 215 | 0.0 | 1.0 | 0.00 | 0.03 | 0.01 | 93 | 1016.9 |
| 20260901002422 | 64 | 215 | 0.0 | 1.0 | 0.00 | 0.03 | 0.01 | 93 | 1016.9 |
| 20260901001919 | 64 | 215 | 0.0 | 1.0 | 0.00 | 0.04 | 0.01 | 93 | 1016.9 |
| 20260901001642 | 64 | 215 | 0.0 | 1.0 | 0.00 | 0.04 | 0.01 | 93 | 1016.9 |
| 20260901000917 | 64 | 215 | 0.0 | 1.0 | 0.00 | 0.04 | 0.01 | 93 | 1017.0 |
| 20260901000415 | 64 | 215 | 0.0 | 1.0 | 0.00 | 0.05 | 0.01 | 92 | 1017.0 |
| 20260831235916 | 64 | 215 | 0.0 | 1.0 | 0.00 | 0.05 | 0.01 | 93 | 1017.0 |
| 20260831235416 | 64 | 215 | 0.0 | 1.0 | 0.00 | 0.05 | 0.01 | 93 | 1016.9 |
| 20260831234916 | 64 | 215 | 0.0 | 0.0 | 0.00 | 0.05 | 0.01 | 93 | 1017.0 |
| 20260831234414 | 64 | 215 | 0.0 | 0.0 | 0.00 | 0.05 | 0.01 | 93 | 1017.0 |
| 20260831233912 | 65 | 215 | 0.0 | 0.0 | 0.00 | 0.05 | 0.01 | 93 | 1017.0 |
| 20260831232900 | 65 | 215 | 0.0 | 0.0 | 0.00 | 0.05 | 0.01 | 92 | 1017.1 |
| 20260831231853 | 65 | 215 | 0.0 | 0.0 | 0.00 | 0.05 | 0.01 | 91 | 1017.1 |
| 20260831231618 | 65 | 215 | 0.0 | 0.0 | 0.00 | 0.05 | 0.01 | 90 | 1017.2 |
| 20260831231115 | 65 | 215 | 0.0 | 2.0 | 0.00 | 0.05 | 0.01 | 90 | 1017.2 |
| 20260831230345 | 66 | 215 | 0.0 | 2.0 | 0.00 | 0.05 | 0.01 | 89 | 1017.2 |
| 20260831225846 | 66 | 215 | 1.0 | 2.0 | 0.00 | 0.05 | 0.01 | 88 | 1017.2 |
| 20260831225349 | 66 | 215 | 2.0 | 4.0 | 0.00 | 0.05 | 0.01 | 88 | 1017.1 |
| 20260831225113 | 66 | 215 | 2.0 | 4.0 | 0.00 | 0.05 | 0.01 | 89 | 1017.2 |
| 20260831224609 | 66 | 215 | 1.0 | 3.0 | 0.00 | 0.05 | 0.01 | 89 | 1017.2 |
| 20260831223843 | 66 | 214 | 0.0 | 2.0 | 0.00 | 0.05 | 0.01 | 89 | 1017.2 |
| 20260831223343 | 66 | 214 | 0.0 | 1.0 | 0.00 | 0.05 | 0.01 | 88 | 1017.2 |
| 20260831222839 | 67 | 214 | 0.0 | 0.0 | 0.00 | 0.05 | 0.01 | 88 | 1017.4 |
| 20260831222340 | 67 | 214 | 0.0 | 1.0 | 0.00 | 0.05 | 0.01 | 88 | 1017.4 |
| 20260831221834 | 67 | 214 | 0.0 | 1.0 | 0.00 | 0.05 | 0.01 | 86 | 1017.4 |
| 20260831221334 | 67 | 214 | 1.0 | 4.0 | 0.00 | 0.05 | 0.01 | 86 | 1017.4 |
| 20260831220833 | 67 | 214 | 1.0 | 4.0 | 0.00 | 0.05 | 0.01 | 86 | 1017.4 |
| 20260831220334 | 67 | 219 | 2.0 | 4.0 | 0.00 | 0.05 | 0.01 | 86 | 1017.5 |
| 20260831220100 | 67 | 219 | 2.0 | 5.0 | 0.00 | 0.05 | 0.01 | 86 | 1017.5 |
| 20260831215334 | 67 | 222 | 2.0 | 5.0 | 0.00 | 0.05 | 0.01 | 85 | 1017.5 |
| 20260831214834 | 67 | 207 | 3.0 | 6.0 | 0.00 | 0.05 | 0.01 | 85 | 1017.5 |
| 20260831214334 | 67 | 229 | 3.0 | 6.0 | 0.00 | 0.05 | 0.01 | 84 | 1017.6 |
| 20260831213834 | 68 | 196 | 3.0 | 6.0 | 0.00 | 0.05 | 0.01 | 83 | 1017.6 |
| 20260831213333 | 68 | 180 | 3.0 | 5.0 | 0.00 | 0.05 | 0.01 | 83 | 1017.6 |
| 20260831212833 | 68 | 212 | 3.0 | 7.0 | 0.00 | 0.05 | 0.01 | 82 | 1017.5 |
| 20260831212330 | 69 | 181 | 3.0 | 7.0 | 0.00 | 0.05 | 0.01 | 81 | 1017.5 |
| 20260831211830 | 69 | 198 | 4.0 | 7.0 | 0.00 | 0.05 | 0.01 | 81 | 1017.5 |
| 20260831211550 | 69 | 200 | 4.0 | 7.0 | 0.00 | 0.05 | 0.01 | 80 | 1017.5 |
| 20260831210829 | 69 | 229 | 3.0 | 7.0 | 0.00 | 0.05 | 0.01 | 80 | 1017.5 |
| 20260831210330 | 69 | 209 | 3.0 | 7.0 | 0.00 | 0.05 | 0.01 | 80 | 1017.4 |
| 20260831210056 | 69 | 197 | 2.0 | 7.0 | 0.00 | 0.05 | 0.01 | 81 | 1017.5 |
| 20260831205329 | 69 | 212 | 3.0 | 8.0 | 0.00 | 0.05 | 0.01 | 80 | 1017.6 |
| 20260831205052 | 69 | 222 | 3.0 | 10.0 | 0.00 | 0.05 | 0.01 | 77 | 1017.6 |
| 20260831204330 | 70 | 182 | 3.0 | 10.0 | 0.00 | 0.05 | 0.01 | 77 | 1017.5 |
| 20260831203829 | 70 | 223 | 1.0 | 6.0 | 0.00 | 0.05 | 0.01 | 78 | 1017.5 |
| 20260831203329 | 70 | 150 | 0.0 | 2.0 | 0.00 | 0.05 | 0.01 | 78 | 1017.5 |
| 20260831202830 | 70 | 150 | 0.0 | 2.0 | 0.00 | 0.05 | 0.01 | 80 | 1017.5 |
| 20260831202548 | 70 | 150 | 0.0 | 1.0 | 0.00 | 0.05 | 0.01 | 80 | 1017.5 |
| 20260831201829 | 70 | 150 | 1.0 | 3.0 | 0.00 | 0.05 | 0.01 | 75 | 1017.5 |
| 20260831201329 | 70 | 150 | 1.0 | 3.0 | 0.00 | 0.05 | 0.01 | 74 | 1017.5 |
| 20260831200830 | 71 | 150 | 1.0 | 7.0 | 0.00 | 0.05 | 0.01 | 75 | 1017.5 |
| 20260831200328 | 71 | 150 | 1.0 | 7.0 | 0.00 | 0.05 | 0.01 | 72 | 1017.5 |
| 20260831195828 | 72 | 81 | 1.0 | 4.0 | 0.00 | 0.05 | 0.01 | 70 | 1017.5 |
| 20260831195548 | 73 | 82 | 2.0 | 7.0 | 0.00 | 0.05 | 0.01 | 70 | 1017.5 |
| 20260831194827 | 72 | 137 | 1.0 | 7.0 | 0.00 | 0.05 | 0.01 | 72 | 1017.7 |
| 20260831194327 | 71 | 126 | 2.0 | 6.0 | 0.00 | 0.05 | 0.01 | 68 | 1017.7 |
| 20260831193828 | 71 | 115 | 2.0 | 6.0 | 0.00 | 0.05 | 0.01 | 74 | 1017.9 |
| 20260831193550 | 72 | 132 | 2.0 | 5.0 | 0.00 | 0.05 | 0.01 | 67 | 1017.8 |
| 20260831192828 | 73 | 128 | 2.0 | 5.0 | 0.00 | 0.05 | 0.01 | 65 | 1017.8 |
| 20260831192544 | 73 | 346 | 2.0 | 5.0 | 0.00 | 0.05 | 0.01 | 69 | 1018.0 |
| 20260831191825 | 72 | 162 | 2.0 | 5.0 | 0.00 | 0.05 | 0.01 | 71 | 1018.0 |
| 20260831191318 | 71 | 212 | 1.0 | 3.0 | 0.00 | 0.05 | 0.01 | 70 | 1018.0 |
| 20260831190813 | 70 | 213 | 0.0 | 3.0 | 0.00 | 0.05 | 0.01 | 76 | 1018.1 |
| 20260831190310 | 70 | 213 | 1.0 | 3.0 | 0.00 | 0.05 | 0.01 | 76 | 1018.1 |
| 20260831185807 | 69 | 213 | 0.0 | 3.0 | 0.00 | 0.05 | 0.01 | 72 | 1018.2 |
| 20260831185307 | 69 | 230 | 0.0 | 2.0 | 0.00 | 0.05 | 0.01 | 79 | 1018.2 |
| 20260831185035 | 70 | 230 | 0.0 | 2.0 | 0.00 | 0.05 | 0.01 | 79 | 1018.4 |
| 20260831184527 | 69 | 230 | 0.0 | 1.0 | 0.00 | 0.05 | 0.01 | 74 | 1018.2 |
| 20260831183805 | 69 | 230 | 0.0 | 1.0 | 0.00 | 0.05 | 0.01 | 78 | 1018.2 |
| 20260831183306 | 69 | 230 | 1.0 | 5.0 | 0.00 | 0.05 | 0.01 | 77 | 1018.2 |
| 20260831182801 | 69 | 229 | 2.0 | 5.0 | 0.00 | 0.05 | 0.01 | 76 | 1018.2 |